{"data":{"norad_id":64224,"intl_designator":"2025-117X","name":"STARLINK-34304","alt_names":[],"object_type":"PAYLOAD","status":"ACTIVE","operator":null,"country":"US","launch_date":"2025-05-31","launch_site_code":"AFWTR","launch_vehicle":null,"mission":null,"orbit_class":"UNKNOWN","rcs_meters":null,"size_class":null,"mass_kg":null,"dimensions":null,"purposes":["comms"],"wikipedia_slug":null,"has_3d_model":false,"image_url":null,"decayed_at":null,"tle_current":{"epoch":"2026-05-25T00:29:26.989728Z","epoch_age_seconds":70377,"freshness":"FRESH","line1":"1 64224U 25117X   26145.02045127  .00014458  00000+0  49918-3 0  9998","line2":"2 64224  53.1582  44.9524 0001360  68.7760 291.3386 15.30209435 56247","mean_motion":15.30209435,"eccentricity":0.000136,"inclination_deg":53.1582,"raan_deg":44.9524,"arg_perigee_deg":68.776,"mean_anomaly_deg":291.3386,"bstar":0.00049918,"rev_number":5624,"period_min":94.104765469571,"perigee_km":474.25484630457,"apogee_km":476.11895040492,"semimajor_km":6853.3238983547,"source":"CELESTRAK","updated_at":"2026-05-25T13:38:20.347363Z"}}}